Weather History for KDXR - November, 2011

Change the Weather History Date:

Tuesday, November 22, 2011

  Actual Average Record
Temperature  
Mean Temperature 42 °F -  
Max Temperature 46 °F 45 °F 65 °F (1963)
Min Temperature 39 °F 31 °F 15 °F (2014)
Degree Days  
Heating Degree Days 22    
Moisture  
Dew Point 39 °F    
Average Humidity 87    
Maximum Humidity 97    
Minimum Humidity 61    
Precipitation  
Precipitation 0.35 in - - ()
Sea Level Pressure  
Sea Level Pressure 30.30 in    
Wind  
Wind Speed 5 mph (ENE)    
Max Wind Speed 15 mph    
Max Gust Speed 24 mph    
Visibility 6 miles    
Events Rain    
Averages and records for this station are not official NWS values.
T = Trace of Precipitation, MM = Missing Value Source: NWS Daily Summary

Daily Weather History Graph

Daily Weather History Graph

Search for Another Location

Airport or City:

Trip Planner

Search our weather history database for the weather conditions in past years. The results will help you decide how hot, cold, wet, or windy it might be!

Date:

Astronomy

Nov. 22, 2011 Rise Set
Actual Time 6:50 AM EST 4:29 PM EST
Civil Twilight 6:20 AM EST 4:59 PM EST
Nautical Twilight 5:46 AM EST 5:33 PM EST
Astronomical Twilight 5:13 AM EST 6:06 PM EST
Moon 3:36 AM EST (11/22) 2:28 PM EST (11/22)
Length of Visible Light 10h 39m
Length of Day
9h 39m
Waning Crescent, 9% of the Moon is Illuminated
Nov 22
Waning Crescent
Nov 25
New
Dec 2
First Quarter
Dec 10
Full
Dec 17
Last Quarter

Hourly Weather History & Observations

Time (EST) Temp. Windchill Dew Point Humidity Pressure Visibility Wind Dir Wind Speed Gust Speed Precip Events Conditions
12:22 AM 42.8 °F 41.1 °F 30.2 °F 61% 30.32 in 10.0 mi NNE 3.5 mph - N/A   Overcast
12:53 AM 43.0 °F 41.3 °F 32.0 °F 65% 30.32 in 10.0 mi ENE 3.5 mph - N/A   Overcast
2:53 AM 42.1 °F 40.2 °F 35.1 °F 76% 30.34 in 10.0 mi East 3.5 mph - N/A   Overcast
4:53 AM 42.1 °F 39.2 °F 36.0 °F 79% 30.36 in 10.0 mi East 4.6 mph - N/A   Overcast
5:53 AM 41.0 °F 38.0 °F 37.0 °F 86% 30.38 in 5.0 mi NNE 4.6 mph - N/A   Overcast
6:28 AM 39.2 °F 35.0 °F 37.4 °F 93% 30.37 in 2.5 mi NE 5.8 mph - N/A   Overcast
7:16 AM 39.2 °F 37.0 °F 37.4 °F 93% 30.38 in 3.0 mi East 3.5 mph - N/A   Overcast
7:37 AM 39.2 °F 35.9 °F 37.4 °F 93% 30.38 in 1.8 mi NE 4.6 mph - N/A   Overcast
7:53 AM 39.0 °F 35.7 °F 37.9 °F 96% 30.40 in 1.2 mi NE 4.6 mph - N/A   Overcast
8:25 AM 39.2 °F 37.0 °F 37.4 °F 93% 30.39 in 1.0 mi NE 3.5 mph - N/A   Overcast
8:40 AM 39.2 °F 35.0 °F 37.4 °F 93% 30.40 in 1.2 mi NE 5.8 mph - N/A   Overcast
8:53 AM 39.0 °F 36.8 °F 37.9 °F 96% 30.40 in 1.8 mi NE 3.5 mph - N/A   Overcast
9:53 AM 39.9 °F 35.8 °F 39.0 °F 97% 30.40 in 4.0 mi NE 5.8 mph - N/A   Overcast
10:40 AM 41.0 °F 39.0 °F 37.4 °F 87% 30.38 in 5.0 mi ENE 3.5 mph - N/A   Overcast
11:28 AM 42.8 °F - 39.2 °F 87% 30.36 in 7.0 mi Calm Calm - N/A   Overcast
11:53 AM 43.0 °F 41.3 °F 39.0 °F 86% 30.35 in 8.0 mi NNE 3.5 mph - N/A   Overcast
12:43 PM 44.6 °F 42.2 °F 39.2 °F 81% 30.32 in 10.0 mi NE 4.6 mph - N/A   Overcast
12:53 PM 46.0 °F 44.8 °F 39.9 °F 79% 30.32 in 10.0 mi NE 3.5 mph - N/A   Overcast
1:53 PM 46.0 °F 42.5 °F 39.9 °F 79% 30.30 in 10.0 mi East 6.9 mph - N/A   Overcast
2:53 PM 46.9 °F - 39.9 °F 77% 30.30 in 10.0 mi Variable 5.8 mph - N/A   Overcast
3:53 PM 46.0 °F 42.5 °F 41.0 °F 83% 30.29 in 10.0 mi ESE 6.9 mph - N/A   Overcast
5:53 PM 45.0 °F 42.6 °F 42.1 °F 90% 30.27 in 5.0 mi ESE 4.6 mph - 0.03 in Rain Light Rain
6:53 PM 45.0 °F 39.7 °F 42.1 °F 90% 30.25 in 4.0 mi East 10.4 mph - 0.04 in Rain Light Rain
8:00 PM 44.6 °F 39.7 °F 42.8 °F 93% 30.20 in 4.0 mi ENE 9.2 mph - 0.01 in Rain Light Rain
8:53 PM 44.1 °F 37.7 °F 42.1 °F 93% 30.20 in 4.0 mi East 12.7 mph - 0.07 in Rain Rain
9:53 PM 44.1 °F 39.0 °F 42.1 °F 93% 30.17 in 4.0 mi ESE 9.2 mph - 0.14 in Rain Rain
10:00 PM 44.6 °F 38.1 °F 42.8 °F 93% 30.14 in 4.0 mi East 13.8 mph 20.7 mph 0.02 in Rain Rain
10:31 PM 44.6 °F 38.4 °F 42.8 °F 93% 30.10 in 4.0 mi East 12.7 mph - 0.07 in Rain Rain
10:38 PM 44.6 °F 39.2 °F 42.8 °F 93% 30.10 in 3.0 mi East 10.4 mph 19.6 mph 0.08 in Rain Rain
11:53 PM 45.0 °F 38.2 °F 43.0 °F 93% 30.01 in 6.0 mi East 15.0 mph 24.2 mph 0.07 in Rain Light Rain